Location: Asheville, NC
(35.6000°N, 82.5500°W)
Time: 02:44:21
(UTC-05:00)

KKS-1 - Pass Details

Date: 15 February 2018
Orbit: 638 x 650 km, 98.3° (Epoch: 18 February)

Event Time Altitude Azimuth Distance (km) Brightness Sun altitude
Rises 19:02:50 0° 355° (N) 2,970 ? -10.9°
Reaches altitude 10° 19:05:32 10° 339° (NNW) 2,055 ? -11.5°
Maximum altitude 19:08:45 20° 292° (WNW) 1,503 ? -12.1°
Drops below altitude 10° 19:11:58 10° 246° (WSW) 2,046 ? -12.8°
Sets 19:14:39 0° 229° (SW) 2,952 ? -13.3°
